Weather History for KW43 - January, 2014

Change the Weather History Date:

Sunday, January 5, 2014

  Actual Average (KEFC) Record (KEFC)
Temperature  
Mean Temperature -4 °F -  
Max Temperature 5 °F 32 °F 62 °F (1984)
Min Temperature -13 °F 7 °F -20 °F (1979)
Degree Days  
Heating Degree Days 69    
Moisture  
Dew Point -15 °F    
Average Humidity 69    
Maximum Humidity 85    
Minimum Humidity 54    
Precipitation  
Precipitation 0.00 in - - ()
Sea Level Pressure  
Sea Level Pressure 30.31 in    
Wind  
Wind Speed 6 mph (WSW)    
Max Wind Speed 12 mph    
Max Gust Speed -    
Visibility 7 miles    
Events Snow    
Averages and records for this station are not official NWS values.
T = Trace of Precipitation, MM = Missing Value Source: NWS Daily Summary

Daily Weather History Graph

Daily Weather History Graph

Search for Another Location

Airport or City:

Trip Planner

Search our weather history database for the weather conditions in past years. The results will help you decide how hot, cold, wet, or windy it might be!

Date:

Astronomy

Jan. 05, 2014 Rise Set
Actual Time 7:35 AM MST 4:32 PM MST
Civil Twilight 7:02 AM MST 5:05 PM MST
Nautical Twilight 6:25 AM MST 5:42 PM MST
Astronomical Twilight 5:50 AM MST 6:17 PM MST
Moon 10:05 AM MST (1/5) 10:17 PM MST (1/5)
Length of Visible Light 10h 03m
Length of Day
8h 57m
Waxing Crescent, 25% of the Moon is Illuminated
Jan 5
Waxing Crescent
Jan 7
First Quarter
Jan 15
Full
Jan 23
Last Quarter
Jan 30
New

Hourly Weather History & Observations

Time (MST) Temp. Windchill Dew Point Humidity Pressure Visibility Wind Dir Wind Speed Gust Speed Precip Events Conditions
12:15 AM 3.2 °F - -0.4 °F 85% 30.15 in 2.5 mi Calm Calm - N/A   Haze
12:35 AM 3.2 °F - -0.4 °F 85% 30.15 in 4.0 mi Calm Calm - N/A Snow Light Snow
12:55 AM 3.2 °F -6.2 °F -2.2 °F 78% 30.16 in 5.0 mi SW 4.6 mph - N/A   Haze
1:15 AM 1.4 °F -9.9 °F -4.0 °F 78% 30.16 in 10.0 mi SSW 5.8 mph - N/A   Overcast
1:35 AM 3.2 °F - -2.2 °F 78% 30.15 in 7.0 mi North - - N/A   Overcast
1:55 AM 3.2 °F - -0.4 °F 85% 30.16 in 7.0 mi North - - N/A   Mostly Cloudy
2:15 AM 3.2 °F - -0.4 °F 85% 30.16 in 10.0 mi North - - N/A   Mostly Cloudy
2:35 AM 3.2 °F -9.1 °F -0.4 °F 85% 30.17 in 10.0 mi SW 6.9 mph - N/A   Mostly Cloudy
2:55 AM 3.2 °F - -0.4 °F 85% 30.17 in 10.0 mi North - - N/A   Overcast
3:15 AM 3.2 °F - -0.4 °F 85% 30.18 in 10.0 mi North - - N/A   Overcast
3:35 AM 5.0 °F - -0.4 °F 78% 30.17 in 10.0 mi North - - N/A   Overcast
3:55 AM 5.0 °F - -0.4 °F 78% 30.18 in 4.0 mi North - - N/A   Haze
4:15 AM 5.0 °F - -0.4 °F 78% 30.19 in 2.0 mi North - - N/A Snow Light Snow
4:35 AM 3.2 °F -10.3 °F -2.2 °F 78% 30.20 in 7.0 mi NW 8.1 mph - N/A   Overcast
4:55 AM 3.2 °F -12.2 °F -4.0 °F 72% 30.20 in 10.0 mi NW 10.4 mph - N/A   Overcast
5:15 AM 3.2 °F -11.3 °F -4.0 °F 72% 30.21 in 4.0 mi NW 9.2 mph - N/A Snow Light Snow
5:35 AM 3.2 °F -11.3 °F -4.0 °F 72% 30.21 in 5.0 mi NW 9.2 mph - N/A   Haze
5:55 AM 1.4 °F -12.5 °F -4.0 °F 78% 30.22 in 7.0 mi NW 8.1 mph - N/A   Overcast
6:15 AM 1.4 °F -14.5 °F -4.0 °F 78% 30.23 in 2.5 mi NW 10.4 mph - N/A   Haze
6:35 AM 1.4 °F -13.5 °F -5.8 °F 72% 30.23 in 2.5 mi NNW 9.2 mph - N/A Snow Light Snow
6:55 AM -2.2 °F - -7.6 °F 78% 30.25 in 2.5 mi North - - N/A Snow Light Snow
7:15 AM -4.0 °F - -7.6 °F 85% 30.25 in 2.5 mi North - - N/A Snow Light Snow
7:35 AM -4.0 °F - -9.4 °F 78% 30.26 in 5.0 mi North - - N/A   Haze
7:55 AM -4.0 °F -17.8 °F -9.4 °F 78% 30.28 in 2.5 mi NW 6.9 mph - N/A   Haze
8:15 AM -4.0 °F - -9.4 °F 78% 30.29 in 5.0 mi North - - N/A   Haze
8:35 AM -4.0 °F - -7.6 °F 85% 30.29 in 0.8 mi North - - N/A Snow Light Snow
8:55 AM -7.6 °F - -13.0 °F 77% 30.33 in 0.5 mi North - - N/A Snow Light Snow
9:15 AM -7.6 °F - -14.8 °F 71% 30.34 in 1.0 mi North - - N/A   Haze
9:35 AM -7.6 °F - -14.8 °F 71% 30.35 in 1.5 mi North - - N/A   Haze
9:55 AM -9.4 °F - -16.6 °F 71% 30.37 in 2.0 mi North - - N/A   Haze
10:15 AM -9.4 °F - -16.6 °F 71% 30.39 in 1.5 mi North - - N/A   Haze
10:35 AM -9.4 °F - -18.4 °F 65% 30.40 in 2.5 mi North - - N/A   Haze
10:55 AM -9.4 °F - -18.4 °F 65% 30.40 in 1.8 mi North - - N/A   Haze
11:15 AM -11.2 °F - -18.4 °F 70% 30.40 in 3.0 mi North - - N/A   Haze
11:35 AM -11.2 °F - -22.0 °F 59% 30.41 in 2.5 mi North - - N/A   Haze
11:55 AM -11.2 °F - -20.2 °F 64% 30.40 in 3.0 mi North - - N/A   Haze
12:15 PM -13.0 °F - -22.0 °F 64% 30.41 in 3.0 mi North - - N/A   Haze
12:35 PM -13.0 °F - -22.0 °F 64% 30.40 in 5.0 mi North - - N/A   Haze
12:55 PM -11.2 °F - -22.0 °F 59% 30.39 in 3.0 mi North - - N/A   Haze
1:15 PM -13.0 °F - -23.8 °F 59% 30.39 in 10.0 mi North - - N/A   Overcast
1:35 PM -11.2 °F - -23.8 °F 54% 30.40 in 10.0 mi North - - N/A   Mostly Cloudy
1:55 PM -11.2 °F - -23.8 °F 54% 30.40 in 10.0 mi North - - N/A   Mostly Cloudy
2:15 PM -13.0 °F - -23.8 °F 59% 30.41 in 7.0 mi North - - N/A   Overcast
2:35 PM -11.2 °F - -23.8 °F 54% 30.40 in 10.0 mi North - - N/A   Mostly Cloudy
2:55 PM -11.2 °F - -22.0 °F 59% 30.41 in 10.0 mi North - - N/A   Mostly Cloudy
3:15 PM -13.0 °F - -23.8 °F 59% 30.41 in 10.0 mi North - - N/A   Scattered Clouds
3:35 PM -13.0 °F - -22.0 °F 64% 30.42 in 10.0 mi North - - N/A   Mostly Cloudy
3:55 PM -13.0 °F - -22.0 °F 64% 30.42 in 10.0 mi North - - N/A   Overcast
4:15 PM -13.0 °F - -22.0 °F 64% 30.43 in 10.0 mi North - - N/A   Scattered Clouds
4:35 PM -13.0 °F -27.0 °F -22.0 °F 64% 30.42 in 10.0 mi WSW 5.8 mph - N/A   Clear
4:55 PM -13.0 °F - -22.0 °F 64% 30.42 in 10.0 mi North - - N/A   Clear
5:15 PM -13.0 °F -27.0 °F -22.0 °F 64% 30.42 in 10.0 mi West 5.8 mph - N/A   Clear
5:35 PM -13.0 °F - -23.8 °F 59% 30.41 in 10.0 mi North - - N/A   Clear
5:55 PM -13.0 °F -27.0 °F -23.8 °F 59% 30.41 in 10.0 mi WSW 5.8 mph - N/A   Clear
6:15 PM -13.0 °F - -22.0 °F 64% 30.40 in 10.0 mi North - - N/A   Clear
6:35 PM -13.0 °F - -22.0 °F 64% 30.40 in 10.0 mi North - - N/A   Clear
6:55 PM -13.0 °F - -22.0 °F 64% 30.39 in 10.0 mi North - - N/A   Clear
7:15 PM -13.0 °F - -22.0 °F 64% 30.38 in 10.0 mi North - - N/A   Clear
7:35 PM -13.0 °F - -22.0 °F 64% 30.38 in 10.0 mi North - - N/A   Clear
7:55 PM -11.2 °F - -22.0 °F 59% 30.37 in 10.0 mi North - - N/A   Clear
8:15 PM -11.2 °F -29.0 °F -22.0 °F 59% 30.36 in 10.0 mi SSW 9.2 mph - N/A   Clear
8:35 PM -13.0 °F -32.4 °F -22.0 °F 64% 30.35 in 10.0 mi SW 10.4 mph - N/A   Clear
8:55 PM -13.0 °F -32.4 °F -22.0 °F 64% 30.33 in 10.0 mi SSW 10.4 mph - N/A   Clear
9:15 PM -11.2 °F -27.8 °F -22.0 °F 59% 30.33 in 10.0 mi SW 8.1 mph - N/A   Clear
9:35 PM -11.2 °F -29.0 °F -22.0 °F 59% 30.32 in 10.0 mi SW 9.2 mph - N/A   Clear
9:55 PM -11.2 °F -30.1 °F -22.0 °F 59% 30.31 in 10.0 mi SW 10.4 mph - N/A   Clear
10:15 PM -11.2 °F -31.1 °F -22.0 °F 59% 30.31 in 10.0 mi SW 11.5 mph - N/A   Clear
10:35 PM -11.2 °F -30.1 °F -22.0 °F 59% 30.31 in 10.0 mi SW 10.4 mph - N/A   Clear
10:55 PM -11.2 °F -29.0 °F -22.0 °F 59% 30.31 in 10.0 mi SW 9.2 mph - N/A   Clear
11:15 PM -11.2 °F -30.1 °F -22.0 °F 59% 30.29 in 10.0 mi SW 10.4 mph - N/A   Clear
11:35 PM -13.0 °F -33.4 °F -22.0 °F 64% 30.28 in 10.0 mi SW 11.5 mph - N/A   Clear
11:55 PM -13.0 °F -33.4 °F -22.0 °F 64% 30.27 in 10.0 mi SW 11.5 mph - N/A   Clear